<?xml version="1.0" encoding="UTF-8" standalone="no" ?>
<gpx xmlns="http://www.topografix.com/GPX/1/1" xmlns:xsi="http://www.w3.org/2001/XMLSchema-instance" xsi:schemaLocation="http://www.topografix.com/GPX/1/1 http://www.topografix.com/GPX/1/1/gpx.xsd" version="1.1" creator="VisuGPX - https://www.visugpx.com">
  <metadata>
    <name>Rando La Feuillie  Parcours n°1 Grand</name>
    <desc><![CDATA[Rando du samedi des sangliers du Vexin sur le parcours n°1, plus long et plus raide]]></desc>
  </metadata>
  <trk>
    <name><![CDATA[OR-6620504--Feuillie (La):Forêt de Lyons en Seine Maritime]]></name>
    <trkseg>
      <trkpt lat="49.46432" lon="1.51497">
        <ele>178</ele>
        <time>2016-10-27T12:16:46Z</time>
      </trkpt>
      <trkpt lat="49.46381" lon="1.51416">
        <ele>178</ele>
        <time>2016-10-27T12:18:46Z</time>
      </trkpt>
      <trkpt lat="49.46372" lon="1.51384">
        <ele>177</ele>
        <time>2016-10-27T12:20:46Z</time>
      </trkpt>
      <trkpt lat="49.46423" lon="1.51258">
        <ele>177</ele>
        <time>2016-10-27T12:22:46Z</time>
      </trkpt>
      <trkpt lat="49.46549" lon="1.51071">
        <ele>176</ele>
        <time>2016-10-27T12:24:46Z</time>
      </trkpt>
      <trkpt lat="49.46447" lon="1.5085">
        <ele>174</ele>
        <time>2016-10-27T12:26:46Z</time>
      </trkpt>
      <trkpt lat="49.46309" lon="1.50429">
        <ele>173</ele>
        <time>2016-10-27T12:28:46Z</time>
      </trkpt>
      <trkpt lat="49.46339" lon="1.50401">
        <ele>172</ele>
        <time>2016-10-27T12:30:46Z</time>
      </trkpt>
      <trkpt lat="49.4657" lon="1.50144">
        <ele>176</ele>
        <time>2016-10-27T12:32:46Z</time>
      </trkpt>
      <trkpt lat="49.46611" lon="1.50082">
        <ele>175</ele>
        <time>2016-10-27T12:34:46Z</time>
      </trkpt>
      <trkpt lat="49.46637" lon="1.50157">
        <ele>176</ele>
        <time>2016-10-27T12:36:46Z</time>
      </trkpt>
      <trkpt lat="49.46825" lon="1.50084">
        <ele>171</ele>
        <time>2016-10-27T12:38:46Z</time>
      </trkpt>
      <trkpt lat="49.46918" lon="1.50019">
        <ele>173</ele>
        <time>2016-10-27T12:40:46Z</time>
      </trkpt>
      <trkpt lat="49.47189" lon="1.4979">
        <ele>182</ele>
        <time>2016-10-27T12:42:46Z</time>
      </trkpt>
      <trkpt lat="49.4719" lon="1.49749">
        <ele>183</ele>
        <time>2016-10-27T12:44:46Z</time>
      </trkpt>
      <trkpt lat="49.47267" lon="1.4967">
        <ele>186</ele>
        <time>2016-10-27T12:46:46Z</time>
      </trkpt>
      <trkpt lat="49.47314" lon="1.4964">
        <ele>186</ele>
        <time>2016-10-27T12:48:46Z</time>
      </trkpt>
      <trkpt lat="49.4737" lon="1.49577">
        <ele>186</ele>
        <time>2016-10-27T12:50:46Z</time>
      </trkpt>
      <trkpt lat="49.47371" lon="1.49537">
        <ele>186</ele>
        <time>2016-10-27T12:52:46Z</time>
      </trkpt>
      <trkpt lat="49.4731" lon="1.4941">
        <ele>183</ele>
        <time>2016-10-27T12:54:46Z</time>
      </trkpt>
      <trkpt lat="49.47334" lon="1.49283">
        <ele>185</ele>
        <time>2016-10-27T12:56:46Z</time>
      </trkpt>
      <trkpt lat="49.47367" lon="1.49208">
        <ele>186</ele>
        <time>2016-10-27T12:58:46Z</time>
      </trkpt>
      <trkpt lat="49.47369" lon="1.49129">
        <ele>187</ele>
        <time>2016-10-27T13:00:46Z</time>
      </trkpt>
      <trkpt lat="49.47413" lon="1.48929">
        <ele>185</ele>
        <time>2016-10-27T13:02:46Z</time>
      </trkpt>
      <trkpt lat="49.47413" lon="1.48876">
        <ele>183</ele>
        <time>2016-10-27T13:04:46Z</time>
      </trkpt>
      <trkpt lat="49.4743" lon="1.48788">
        <ele>180</ele>
        <time>2016-10-27T13:06:46Z</time>
      </trkpt>
      <trkpt lat="49.47297" lon="1.48556">
        <ele>175</ele>
        <time>2016-10-27T13:08:46Z</time>
      </trkpt>
      <trkpt lat="49.47654" lon="1.48131">
        <ele>179</ele>
        <time>2016-10-27T13:10:46Z</time>
      </trkpt>
      <trkpt lat="49.47857" lon="1.47563">
        <ele>174</ele>
        <time>2016-10-27T13:12:46Z</time>
      </trkpt>
      <trkpt lat="49.48188" lon="1.46972">
        <ele>156</ele>
        <time>2016-10-27T13:14:46Z</time>
      </trkpt>
      <trkpt lat="49.48159" lon="1.46917">
        <ele>152</ele>
        <time>2016-10-27T13:16:46Z</time>
      </trkpt>
      <trkpt lat="49.48073" lon="1.46794">
        <ele>150</ele>
        <time>2016-10-27T13:18:46Z</time>
      </trkpt>
      <trkpt lat="49.4818" lon="1.4664">
        <ele>129</ele>
        <time>2016-10-27T13:20:46Z</time>
      </trkpt>
      <trkpt lat="49.48222" lon="1.46586">
        <ele>121</ele>
        <time>2016-10-27T13:22:46Z</time>
      </trkpt>
      <trkpt lat="49.48301" lon="1.46537">
        <ele>111</ele>
        <time>2016-10-27T13:24:46Z</time>
      </trkpt>
      <trkpt lat="49.48385" lon="1.46511">
        <ele>98</ele>
        <time>2016-10-27T13:26:46Z</time>
      </trkpt>
      <trkpt lat="49.4845" lon="1.46511">
        <ele>91</ele>
        <time>2016-10-27T13:28:46Z</time>
      </trkpt>
      <trkpt lat="49.4847" lon="1.46494">
        <ele>89</ele>
        <time>2016-10-27T13:30:46Z</time>
      </trkpt>
      <trkpt lat="49.48386" lon="1.46299">
        <ele>87</ele>
        <time>2016-10-27T13:32:46Z</time>
      </trkpt>
      <trkpt lat="49.48385" lon="1.46267">
        <ele>87</ele>
        <time>2016-10-27T13:34:46Z</time>
      </trkpt>
      <trkpt lat="49.4847" lon="1.46299">
        <ele>87</ele>
        <time>2016-10-27T13:36:46Z</time>
      </trkpt>
      <trkpt lat="49.48519" lon="1.46292">
        <ele>87</ele>
        <time>2016-10-27T13:38:46Z</time>
      </trkpt>
      <trkpt lat="49.48579" lon="1.46275">
        <ele>84</ele>
        <time>2016-10-27T13:40:46Z</time>
      </trkpt>
      <trkpt lat="49.48588" lon="1.46226">
        <ele>84</ele>
        <time>2016-10-27T13:42:46Z</time>
      </trkpt>
      <trkpt lat="49.48605" lon="1.462">
        <ele>83</ele>
        <time>2016-10-27T13:44:46Z</time>
      </trkpt>
      <trkpt lat="49.4865" lon="1.46151">
        <ele>80</ele>
        <time>2016-10-27T13:46:46Z</time>
      </trkpt>
      <trkpt lat="49.48714" lon="1.45977">
        <ele>78</ele>
        <time>2016-10-27T13:48:46Z</time>
      </trkpt>
      <trkpt lat="49.48697" lon="1.45805">
        <ele>79</ele>
        <time>2016-10-27T13:50:46Z</time>
      </trkpt>
      <trkpt lat="49.48807" lon="1.4597">
        <ele>82</ele>
        <time>2016-10-27T13:52:46Z</time>
      </trkpt>
      <trkpt lat="49.48863" lon="1.46013">
        <ele>89</ele>
        <time>2016-10-27T13:54:46Z</time>
      </trkpt>
      <trkpt lat="49.48903" lon="1.45968">
        <ele>97</ele>
        <time>2016-10-27T13:56:46Z</time>
      </trkpt>
      <trkpt lat="49.49033" lon="1.45831">
        <ele>116</ele>
        <time>2016-10-27T13:58:46Z</time>
      </trkpt>
      <trkpt lat="49.49085" lon="1.45825">
        <ele>125</ele>
        <time>2016-10-27T14:00:46Z</time>
      </trkpt>
      <trkpt lat="49.49159" lon="1.45897">
        <ele>148</ele>
        <time>2016-10-27T14:02:46Z</time>
      </trkpt>
      <trkpt lat="49.49216" lon="1.45801">
        <ele>155</ele>
        <time>2016-10-27T14:04:46Z</time>
      </trkpt>
      <trkpt lat="49.49202" lon="1.45722">
        <ele>154</ele>
        <time>2016-10-27T14:06:46Z</time>
      </trkpt>
      <trkpt lat="49.49198" lon="1.45674">
        <ele>156</ele>
        <time>2016-10-27T14:08:46Z</time>
      </trkpt>
      <trkpt lat="49.49216" lon="1.45595">
        <ele>158</ele>
        <time>2016-10-27T14:10:46Z</time>
      </trkpt>
      <trkpt lat="49.49383" lon="1.45464">
        <ele>172</ele>
        <time>2016-10-27T14:12:46Z</time>
      </trkpt>
      <trkpt lat="49.49453" lon="1.45683">
        <ele>173</ele>
        <time>2016-10-27T14:14:46Z</time>
      </trkpt>
      <trkpt lat="49.49471" lon="1.45732">
        <ele>173</ele>
        <time>2016-10-27T14:16:46Z</time>
      </trkpt>
      <trkpt lat="49.4955" lon="1.45908">
        <ele>173</ele>
        <time>2016-10-27T14:18:46Z</time>
      </trkpt>
      <trkpt lat="49.49513" lon="1.46189">
        <ele>171</ele>
        <time>2016-10-27T14:20:46Z</time>
      </trkpt>
      <trkpt lat="49.49496" lon="1.46314">
        <ele>171</ele>
        <time>2016-10-27T14:22:46Z</time>
      </trkpt>
      <trkpt lat="49.49369" lon="1.4696">
        <ele>150</ele>
        <time>2016-10-27T14:24:46Z</time>
      </trkpt>
      <trkpt lat="49.49336" lon="1.47071">
        <ele>137</ele>
        <time>2016-10-27T14:26:46Z</time>
      </trkpt>
      <trkpt lat="49.49329" lon="1.47131">
        <ele>129</ele>
        <time>2016-10-27T14:28:46Z</time>
      </trkpt>
      <trkpt lat="49.49365" lon="1.47301">
        <ele>110</ele>
        <time>2016-10-27T14:30:46Z</time>
      </trkpt>
      <trkpt lat="49.49405" lon="1.47329">
        <ele>110</ele>
        <time>2016-10-27T14:32:46Z</time>
      </trkpt>
      <trkpt lat="49.49398" lon="1.4738">
        <ele>104</ele>
        <time>2016-10-27T14:34:46Z</time>
      </trkpt>
      <trkpt lat="49.49415" lon="1.47464">
        <ele>99</ele>
        <time>2016-10-27T14:36:46Z</time>
      </trkpt>
      <trkpt lat="49.49419" lon="1.47535">
        <ele>94</ele>
        <time>2016-10-27T14:38:46Z</time>
      </trkpt>
      <trkpt lat="49.49412" lon="1.47582">
        <ele>91</ele>
        <time>2016-10-27T14:40:46Z</time>
      </trkpt>
      <trkpt lat="49.49387" lon="1.47623">
        <ele>88</ele>
        <time>2016-10-27T14:42:46Z</time>
      </trkpt>
      <trkpt lat="49.49462" lon="1.47674">
        <ele>88</ele>
        <time>2016-10-27T14:44:46Z</time>
      </trkpt>
      <trkpt lat="49.4956" lon="1.47704">
        <ele>87</ele>
        <time>2016-10-27T14:46:46Z</time>
      </trkpt>
      <trkpt lat="49.49612" lon="1.47578">
        <ele>92</ele>
        <time>2016-10-27T14:48:46Z</time>
      </trkpt>
      <trkpt lat="49.49743" lon="1.47464">
        <ele>115</ele>
        <time>2016-10-27T14:50:46Z</time>
      </trkpt>
      <trkpt lat="49.49832" lon="1.47455">
        <ele>135</ele>
        <time>2016-10-27T14:52:46Z</time>
      </trkpt>
      <trkpt lat="49.49832" lon="1.47391">
        <ele>143</ele>
        <time>2016-10-27T14:54:46Z</time>
      </trkpt>
      <trkpt lat="49.49865" lon="1.47333">
        <ele>154</ele>
        <time>2016-10-27T14:56:46Z</time>
      </trkpt>
      <trkpt lat="49.49901" lon="1.47335">
        <ele>163</ele>
        <time>2016-10-27T14:58:46Z</time>
      </trkpt>
      <trkpt lat="49.49993" lon="1.47288">
        <ele>175</ele>
        <time>2016-10-27T15:00:46Z</time>
      </trkpt>
      <trkpt lat="49.5024" lon="1.47344">
        <ele>186</ele>
        <time>2016-10-27T15:02:46Z</time>
      </trkpt>
      <trkpt lat="49.5029" lon="1.47419">
        <ele>187</ele>
        <time>2016-10-27T15:04:46Z</time>
      </trkpt>
      <trkpt lat="49.50325" lon="1.47455">
        <ele>185</ele>
        <time>2016-10-27T15:06:46Z</time>
      </trkpt>
      <trkpt lat="49.50374" lon="1.47522">
        <ele>178</ele>
        <time>2016-10-27T15:08:46Z</time>
      </trkpt>
      <trkpt lat="49.5042" lon="1.47539">
        <ele>176</ele>
        <time>2016-10-27T15:10:46Z</time>
      </trkpt>
      <trkpt lat="49.5047" lon="1.47533">
        <ele>179</ele>
        <time>2016-10-27T15:12:46Z</time>
      </trkpt>
      <trkpt lat="49.50494" lon="1.47569">
        <ele>176</ele>
        <time>2016-10-27T15:14:46Z</time>
      </trkpt>
      <trkpt lat="49.50513" lon="1.47644">
        <ele>161</ele>
        <time>2016-10-27T15:16:46Z</time>
      </trkpt>
      <trkpt lat="49.50555" lon="1.47672">
        <ele>154</ele>
        <time>2016-10-27T15:18:46Z</time>
      </trkpt>
      <trkpt lat="49.50668" lon="1.47691">
        <ele>148</ele>
        <time>2016-10-27T15:20:46Z</time>
      </trkpt>
      <trkpt lat="49.50591" lon="1.47747">
        <ele>129</ele>
        <time>2016-10-27T15:22:46Z</time>
      </trkpt>
      <trkpt lat="49.50552" lon="1.47809">
        <ele>115</ele>
        <time>2016-10-27T15:24:46Z</time>
      </trkpt>
      <trkpt lat="49.50531" lon="1.47904">
        <ele>101</ele>
        <time>2016-10-27T15:26:46Z</time>
      </trkpt>
      <trkpt lat="49.50513" lon="1.47998">
        <ele>93</ele>
        <time>2016-10-27T15:28:46Z</time>
      </trkpt>
      <trkpt lat="49.50618" lon="1.48013">
        <ele>93</ele>
        <time>2016-10-27T15:30:46Z</time>
      </trkpt>
      <trkpt lat="49.50811" lon="1.48037">
        <ele>91</ele>
        <time>2016-10-27T15:32:46Z</time>
      </trkpt>
      <trkpt lat="49.50984" lon="1.47878">
        <ele>101</ele>
        <time>2016-10-27T15:34:46Z</time>
      </trkpt>
      <trkpt lat="49.51019" lon="1.47874">
        <ele>103</ele>
        <time>2016-10-27T15:36:46Z</time>
      </trkpt>
      <trkpt lat="49.51111" lon="1.47953">
        <ele>98</ele>
        <time>2016-10-27T15:38:46Z</time>
      </trkpt>
      <trkpt lat="49.51204" lon="1.48011">
        <ele>103</ele>
        <time>2016-10-27T15:40:46Z</time>
      </trkpt>
      <trkpt lat="49.51406" lon="1.48204">
        <ele>112</ele>
        <time>2016-10-27T15:42:46Z</time>
      </trkpt>
      <trkpt lat="49.51429" lon="1.48264">
        <ele>105</ele>
        <time>2016-10-27T15:44:46Z</time>
      </trkpt>
      <trkpt lat="49.51487" lon="1.48357">
        <ele>100</ele>
        <time>2016-10-27T15:46:46Z</time>
      </trkpt>
      <trkpt lat="49.51527" lon="1.48359">
        <ele>102</ele>
        <time>2016-10-27T15:48:46Z</time>
      </trkpt>
      <trkpt lat="49.51557" lon="1.48326">
        <ele>109</ele>
        <time>2016-10-27T15:50:46Z</time>
      </trkpt>
      <trkpt lat="49.51617" lon="1.48324">
        <ele>116</ele>
        <time>2016-10-27T15:52:46Z</time>
      </trkpt>
      <trkpt lat="49.51661" lon="1.48365">
        <ele>111</ele>
        <time>2016-10-27T15:54:46Z</time>
      </trkpt>
      <trkpt lat="49.51674" lon="1.48404">
        <ele>104</ele>
        <time>2016-10-27T15:56:46Z</time>
      </trkpt>
      <trkpt lat="49.51716" lon="1.48444">
        <ele>105</ele>
        <time>2016-10-27T15:58:46Z</time>
      </trkpt>
      <trkpt lat="49.51767" lon="1.48653">
        <ele>102</ele>
        <time>2016-10-27T16:00:46Z</time>
      </trkpt>
      <trkpt lat="49.51824" lon="1.48753">
        <ele>110</ele>
        <time>2016-10-27T16:02:46Z</time>
      </trkpt>
      <trkpt lat="49.51892" lon="1.48848">
        <ele>111</ele>
        <time>2016-10-27T16:04:46Z</time>
      </trkpt>
      <trkpt lat="49.52001" lon="1.48831">
        <ele>116</ele>
        <time>2016-10-27T16:06:46Z</time>
      </trkpt>
      <trkpt lat="49.52078" lon="1.48941">
        <ele>112</ele>
        <time>2016-10-27T16:08:46Z</time>
      </trkpt>
      <trkpt lat="49.52162" lon="1.48975">
        <ele>115</ele>
        <time>2016-10-27T16:10:46Z</time>
      </trkpt>
      <trkpt lat="49.52234" lon="1.49063">
        <ele>112</ele>
        <time>2016-10-27T16:12:46Z</time>
      </trkpt>
      <trkpt lat="49.52369" lon="1.49082">
        <ele>109</ele>
        <time>2016-10-27T16:14:46Z</time>
      </trkpt>
      <trkpt lat="49.52511" lon="1.49082">
        <ele>107</ele>
        <time>2016-10-27T16:16:46Z</time>
      </trkpt>
      <trkpt lat="49.52613" lon="1.4909">
        <ele>106</ele>
        <time>2016-10-27T16:18:46Z</time>
      </trkpt>
      <trkpt lat="49.52692" lon="1.49148">
        <ele>104</ele>
        <time>2016-10-27T16:20:46Z</time>
      </trkpt>
      <trkpt lat="49.52757" lon="1.49174">
        <ele>106</ele>
        <time>2016-10-27T16:22:46Z</time>
      </trkpt>
      <trkpt lat="49.52812" lon="1.49206">
        <ele>108</ele>
        <time>2016-10-27T16:24:46Z</time>
      </trkpt>
      <trkpt lat="49.52867" lon="1.49275">
        <ele>109</ele>
        <time>2016-10-27T16:26:46Z</time>
      </trkpt>
      <trkpt lat="49.52856" lon="1.49408">
        <ele>105</ele>
        <time>2016-10-27T16:28:46Z</time>
      </trkpt>
      <trkpt lat="49.52834" lon="1.49459">
        <ele>104</ele>
        <time>2016-10-27T16:30:46Z</time>
      </trkpt>
      <trkpt lat="49.5284" lon="1.49552">
        <ele>102</ele>
        <time>2016-10-27T16:32:46Z</time>
      </trkpt>
      <trkpt lat="49.52858" lon="1.4961">
        <ele>101</ele>
        <time>2016-10-27T16:34:46Z</time>
      </trkpt>
      <trkpt lat="49.52913" lon="1.49597">
        <ele>102</ele>
        <time>2016-10-27T16:36:46Z</time>
      </trkpt>
      <trkpt lat="49.52957" lon="1.49753">
        <ele>99</ele>
        <time>2016-10-27T16:38:46Z</time>
      </trkpt>
      <trkpt lat="49.52951" lon="1.49837">
        <ele>99</ele>
        <time>2016-10-27T16:40:46Z</time>
      </trkpt>
      <trkpt lat="49.52976" lon="1.49964">
        <ele>101</ele>
        <time>2016-10-27T16:42:46Z</time>
      </trkpt>
      <trkpt lat="49.53015" lon="1.49994">
        <ele>102</ele>
        <time>2016-10-27T16:44:46Z</time>
      </trkpt>
      <trkpt lat="49.52945" lon="1.50054">
        <ele>121</ele>
        <time>2016-10-27T16:46:46Z</time>
      </trkpt>
      <trkpt lat="49.52725" lon="1.49985">
        <ele>125</ele>
        <time>2016-10-27T16:48:46Z</time>
      </trkpt>
      <trkpt lat="49.5261" lon="1.50065">
        <ele>124</ele>
        <time>2016-10-27T16:50:46Z</time>
      </trkpt>
      <trkpt lat="49.52516" lon="1.50262">
        <ele>120</ele>
        <time>2016-10-27T16:52:46Z</time>
      </trkpt>
      <trkpt lat="49.52423" lon="1.50438">
        <ele>107</ele>
        <time>2016-10-27T16:54:46Z</time>
      </trkpt>
      <trkpt lat="49.52405" lon="1.50532">
        <ele>105</ele>
        <time>2016-10-27T16:56:46Z</time>
      </trkpt>
      <trkpt lat="49.52374" lon="1.50573">
        <ele>104</ele>
        <time>2016-10-27T16:58:46Z</time>
      </trkpt>
      <trkpt lat="49.52308" lon="1.50599">
        <ele>104</ele>
        <time>2016-10-27T17:00:46Z</time>
      </trkpt>
      <trkpt lat="49.52232" lon="1.50655">
        <ele>111</ele>
        <time>2016-10-27T17:02:46Z</time>
      </trkpt>
      <trkpt lat="49.52221" lon="1.50695">
        <ele>114</ele>
        <time>2016-10-27T17:04:46Z</time>
      </trkpt>
      <trkpt lat="49.52256" lon="1.50895">
        <ele>117</ele>
        <time>2016-10-27T17:06:46Z</time>
      </trkpt>
      <trkpt lat="49.52214" lon="1.50985">
        <ele>122</ele>
        <time>2016-10-27T17:08:46Z</time>
      </trkpt>
      <trkpt lat="49.52111" lon="1.51204">
        <ele>134</ele>
        <time>2016-10-27T17:10:46Z</time>
      </trkpt>
      <trkpt lat="49.52008" lon="1.51496">
        <ele>155</ele>
        <time>2016-10-27T17:12:46Z</time>
      </trkpt>
      <trkpt lat="49.52016" lon="1.51612">
        <ele>156</ele>
        <time>2016-10-27T17:14:46Z</time>
      </trkpt>
      <trkpt lat="49.51986" lon="1.51702">
        <ele>165</ele>
        <time>2016-10-27T17:16:46Z</time>
      </trkpt>
      <trkpt lat="49.51936" lon="1.51813">
        <ele>180</ele>
        <time>2016-10-27T17:18:46Z</time>
      </trkpt>
      <trkpt lat="49.51888" lon="1.51942">
        <ele>183</ele>
        <time>2016-10-27T17:20:46Z</time>
      </trkpt>
      <trkpt lat="49.51796" lon="1.51938">
        <ele>194</ele>
        <time>2016-10-27T17:22:46Z</time>
      </trkpt>
      <trkpt lat="49.5171" lon="1.52092">
        <ele>200</ele>
        <time>2016-10-27T17:24:46Z</time>
      </trkpt>
      <trkpt lat="49.5152" lon="1.52418">
        <ele>206</ele>
        <time>2016-10-27T17:26:46Z</time>
      </trkpt>
      <trkpt lat="49.51317" lon="1.53011">
        <ele>204</ele>
        <time>2016-10-27T17:28:46Z</time>
      </trkpt>
      <trkpt lat="49.51083" lon="1.53517">
        <ele>209</ele>
        <time>2016-10-27T17:30:46Z</time>
      </trkpt>
      <trkpt lat="49.50969" lon="1.53749">
        <ele>211</ele>
        <time>2016-10-27T17:32:46Z</time>
      </trkpt>
      <trkpt lat="49.50855" lon="1.53873">
        <ele>210</ele>
        <time>2016-10-27T17:34:46Z</time>
      </trkpt>
      <trkpt lat="49.50698" lon="1.54105">
        <ele>207</ele>
        <time>2016-10-27T17:36:46Z</time>
      </trkpt>
      <trkpt lat="49.50673" lon="1.54208">
        <ele>207</ele>
        <time>2016-10-27T17:38:46Z</time>
      </trkpt>
      <trkpt lat="49.50612" lon="1.54302">
        <ele>210</ele>
        <time>2016-10-27T17:40:46Z</time>
      </trkpt>
      <trkpt lat="49.50601" lon="1.54457">
        <ele>209</ele>
        <time>2016-10-27T17:42:46Z</time>
      </trkpt>
      <trkpt lat="49.50618" lon="1.54791">
        <ele>192</ele>
        <time>2016-10-27T17:44:46Z</time>
      </trkpt>
      <trkpt lat="49.50428" lon="1.55425">
        <ele>212</ele>
        <time>2016-10-27T17:46:46Z</time>
      </trkpt>
      <trkpt lat="49.50343" lon="1.55635">
        <ele>221</ele>
        <time>2016-10-27T17:48:46Z</time>
      </trkpt>
      <trkpt lat="49.50303" lon="1.55832">
        <ele>222</ele>
        <time>2016-10-27T17:50:46Z</time>
      </trkpt>
      <trkpt lat="49.5051" lon="1.55581">
        <ele>235</ele>
        <time>2016-10-27T17:52:46Z</time>
      </trkpt>
      <trkpt lat="49.50663" lon="1.55467">
        <ele>235</ele>
        <time>2016-10-27T17:54:46Z</time>
      </trkpt>
      <trkpt lat="49.50907" lon="1.55744">
        <ele>236</ele>
        <time>2016-10-27T17:56:46Z</time>
      </trkpt>
      <trkpt lat="49.50615" lon="1.57594">
        <ele>239</ele>
        <time>2016-10-27T17:58:46Z</time>
      </trkpt>
      <trkpt lat="49.50439" lon="1.57916">
        <ele>229</ele>
        <time>2016-10-27T18:00:46Z</time>
      </trkpt>
      <trkpt lat="49.50495" lon="1.5801">
        <ele>229</ele>
        <time>2016-10-27T18:02:46Z</time>
      </trkpt>
      <trkpt lat="49.50503" lon="1.58075">
        <ele>229</ele>
        <time>2016-10-27T18:04:46Z</time>
      </trkpt>
      <trkpt lat="49.504" lon="1.58448">
        <ele>227</ele>
        <time>2016-10-27T18:06:46Z</time>
      </trkpt>
      <trkpt lat="49.50275" lon="1.58654">
        <ele>228</ele>
        <time>2016-10-27T18:08:46Z</time>
      </trkpt>
      <trkpt lat="49.50219" lon="1.58714">
        <ele>228</ele>
        <time>2016-10-27T18:10:46Z</time>
      </trkpt>
      <trkpt lat="49.50155" lon="1.58585">
        <ele>229</ele>
        <time>2016-10-27T18:12:46Z</time>
      </trkpt>
      <trkpt lat="49.50052" lon="1.58264">
        <ele>230</ele>
        <time>2016-10-27T18:14:46Z</time>
      </trkpt>
      <trkpt lat="49.49932" lon="1.58079">
        <ele>232</ele>
        <time>2016-10-27T18:16:46Z</time>
      </trkpt>
      <trkpt lat="49.49812" lon="1.57955">
        <ele>230</ele>
        <time>2016-10-27T18:18:46Z</time>
      </trkpt>
      <trkpt lat="49.49784" lon="1.57873">
        <ele>229</ele>
        <time>2016-10-27T18:20:46Z</time>
      </trkpt>
      <trkpt lat="49.49681" lon="1.578">
        <ele>227</ele>
        <time>2016-10-27T18:22:46Z</time>
      </trkpt>
      <trkpt lat="49.49567" lon="1.57714">
        <ele>227</ele>
        <time>2016-10-27T18:24:46Z</time>
      </trkpt>
      <trkpt lat="49.49096" lon="1.57324">
        <ele>230</ele>
        <time>2016-10-27T18:26:46Z</time>
      </trkpt>
      <trkpt lat="49.48848" lon="1.56873">
        <ele>225</ele>
        <time>2016-10-27T18:28:46Z</time>
      </trkpt>
      <trkpt lat="49.48725" lon="1.56616">
        <ele>221</ele>
        <time>2016-10-27T18:30:46Z</time>
      </trkpt>
      <trkpt lat="49.48563" lon="1.56427">
        <ele>213</ele>
        <time>2016-10-27T18:32:46Z</time>
      </trkpt>
      <trkpt lat="49.4829" lon="1.56268">
        <ele>207</ele>
        <time>2016-10-27T18:34:46Z</time>
      </trkpt>
      <trkpt lat="49.4812" lon="1.56122">
        <ele>202</ele>
        <time>2016-10-27T18:36:46Z</time>
      </trkpt>
      <trkpt lat="49.48421" lon="1.55671">
        <ele>209</ele>
        <time>2016-10-27T18:38:46Z</time>
      </trkpt>
      <trkpt lat="49.48382" lon="1.55581">
        <ele>209</ele>
        <time>2016-10-27T18:40:46Z</time>
      </trkpt>
      <trkpt lat="49.48162" lon="1.55324">
        <ele>204</ele>
        <time>2016-10-27T18:42:46Z</time>
      </trkpt>
      <trkpt lat="49.48059" lon="1.55139">
        <ele>201</ele>
        <time>2016-10-27T18:44:46Z</time>
      </trkpt>
      <trkpt lat="49.47986" lon="1.5495">
        <ele>202</ele>
        <time>2016-10-27T18:46:46Z</time>
      </trkpt>
      <trkpt lat="49.47799" lon="1.5465">
        <ele>195</ele>
        <time>2016-10-27T18:48:46Z</time>
      </trkpt>
      <trkpt lat="49.47732" lon="1.54603">
        <ele>188</ele>
        <time>2016-10-27T18:50:46Z</time>
      </trkpt>
      <trkpt lat="49.47654" lon="1.54629">
        <ele>177</ele>
        <time>2016-10-27T18:52:46Z</time>
      </trkpt>
      <trkpt lat="49.47604" lon="1.54547">
        <ele>176</ele>
        <time>2016-10-27T18:54:46Z</time>
      </trkpt>
      <trkpt lat="49.47582" lon="1.54453">
        <ele>172</ele>
        <time>2016-10-27T18:56:46Z</time>
      </trkpt>
      <trkpt lat="49.47657" lon="1.54221">
        <ele>171</ele>
        <time>2016-10-27T18:58:46Z</time>
      </trkpt>
      <trkpt lat="49.47735" lon="1.54114">
        <ele>171</ele>
        <time>2016-10-27T19:00:46Z</time>
      </trkpt>
      <trkpt lat="49.47749" lon="1.54023">
        <ele>168</ele>
        <time>2016-10-27T19:02:46Z</time>
      </trkpt>
      <trkpt lat="49.4773" lon="1.53856">
        <ele>167</ele>
        <time>2016-10-27T19:04:46Z</time>
      </trkpt>
      <trkpt lat="49.47632" lon="1.53551">
        <ele>158</ele>
        <time>2016-10-27T19:06:46Z</time>
      </trkpt>
      <trkpt lat="49.47772" lon="1.53328">
        <ele>155</ele>
        <time>2016-10-27T19:08:46Z</time>
      </trkpt>
      <trkpt lat="49.47852" lon="1.53165">
        <ele>149</ele>
        <time>2016-10-27T19:10:46Z</time>
      </trkpt>
      <trkpt lat="49.47964" lon="1.53041">
        <ele>155</ele>
        <time>2016-10-27T19:12:46Z</time>
      </trkpt>
      <trkpt lat="49.47958" lon="1.52908">
        <ele>146</ele>
        <time>2016-10-27T19:14:46Z</time>
      </trkpt>
      <trkpt lat="49.48025" lon="1.52693">
        <ele>132</ele>
        <time>2016-10-27T19:16:46Z</time>
      </trkpt>
      <trkpt lat="49.4814" lon="1.52642">
        <ele>137</ele>
        <time>2016-10-27T19:18:46Z</time>
      </trkpt>
      <trkpt lat="49.48117" lon="1.52564">
        <ele>139</ele>
        <time>2016-10-27T19:20:46Z</time>
      </trkpt>
      <trkpt lat="49.48137" lon="1.52466">
        <ele>145</ele>
        <time>2016-10-27T19:22:46Z</time>
      </trkpt>
      <trkpt lat="49.48173" lon="1.5247">
        <ele>154</ele>
        <time>2016-10-27T19:24:46Z</time>
      </trkpt>
      <trkpt lat="49.48179" lon="1.52285">
        <ele>150</ele>
        <time>2016-10-27T19:26:46Z</time>
      </trkpt>
      <trkpt lat="49.48156" lon="1.52032">
        <ele>136</ele>
        <time>2016-10-27T19:28:46Z</time>
      </trkpt>
      <trkpt lat="49.48173" lon="1.51942">
        <ele>132</ele>
        <time>2016-10-27T19:30:46Z</time>
      </trkpt>
      <trkpt lat="49.48237" lon="1.51826">
        <ele>132</ele>
        <time>2016-10-27T19:32:46Z</time>
      </trkpt>
      <trkpt lat="49.48273" lon="1.51667">
        <ele>126</ele>
        <time>2016-10-27T19:34:46Z</time>
      </trkpt>
      <trkpt lat="49.48271" lon="1.51547">
        <ele>125</ele>
        <time>2016-10-27T19:36:46Z</time>
      </trkpt>
      <trkpt lat="49.48254" lon="1.51491">
        <ele>123</ele>
        <time>2016-10-27T19:38:46Z</time>
      </trkpt>
      <trkpt lat="49.48061" lon="1.51316">
        <ele>139</ele>
        <time>2016-10-27T19:40:46Z</time>
      </trkpt>
      <trkpt lat="49.48034" lon="1.51221">
        <ele>153</ele>
        <time>2016-10-27T19:42:46Z</time>
      </trkpt>
      <trkpt lat="49.48" lon="1.51191">
        <ele>164</ele>
        <time>2016-10-27T19:44:46Z</time>
      </trkpt>
      <trkpt lat="49.47922" lon="1.50916">
        <ele>179</ele>
        <time>2016-10-27T19:46:46Z</time>
      </trkpt>
      <trkpt lat="49.47724" lon="1.50706">
        <ele>180</ele>
        <time>2016-10-27T19:48:46Z</time>
      </trkpt>
      <trkpt lat="49.47679" lon="1.50672">
        <ele>181</ele>
        <time>2016-10-27T19:50:46Z</time>
      </trkpt>
      <trkpt lat="49.47663" lon="1.5062">
        <ele>182</ele>
        <time>2016-10-27T19:52:46Z</time>
      </trkpt>
      <trkpt lat="49.47465" lon="1.50363">
        <ele>184</ele>
        <time>2016-10-27T19:54:46Z</time>
      </trkpt>
      <trkpt lat="49.47487" lon="1.50286">
        <ele>183</ele>
        <time>2016-10-27T19:56:46Z</time>
      </trkpt>
      <trkpt lat="49.47314" lon="1.50071">
        <ele>182</ele>
        <time>2016-10-27T19:58:46Z</time>
      </trkpt>
      <trkpt lat="49.4718" lon="1.49792">
        <ele>181</ele>
        <time>2016-10-27T20:00:46Z</time>
      </trkpt>
      <trkpt lat="49.4691" lon="1.50015">
        <ele>173</ele>
        <time>2016-10-27T20:02:46Z</time>
      </trkpt>
      <trkpt lat="49.46812" lon="1.5008">
        <ele>171</ele>
        <time>2016-10-27T20:04:46Z</time>
      </trkpt>
      <trkpt lat="49.46637" lon="1.50161">
        <ele>176</ele>
        <time>2016-10-27T20:06:46Z</time>
      </trkpt>
      <trkpt lat="49.46564" lon="1.49925">
        <ele>173</ele>
        <time>2016-10-27T20:08:46Z</time>
      </trkpt>
      <trkpt lat="49.46544" lon="1.49831">
        <ele>172</ele>
        <time>2016-10-27T20:10:46Z</time>
      </trkpt>
      <trkpt lat="49.46536" lon="1.49715">
        <ele>177</ele>
        <time>2016-10-27T20:12:46Z</time>
      </trkpt>
      <trkpt lat="49.46525" lon="1.49633">
        <ele>180</ele>
        <time>2016-10-27T20:14:46Z</time>
      </trkpt>
      <trkpt lat="49.46536" lon="1.49539">
        <ele>178</ele>
        <time>2016-10-27T20:16:46Z</time>
      </trkpt>
      <trkpt lat="49.46517" lon="1.49466">
        <ele>170</ele>
        <time>2016-10-27T20:18:46Z</time>
      </trkpt>
      <trkpt lat="49.46581" lon="1.49007">
        <ele>166</ele>
        <time>2016-10-27T20:20:46Z</time>
      </trkpt>
      <trkpt lat="49.46578" lon="1.48934">
        <ele>164</ele>
        <time>2016-10-27T20:22:46Z</time>
      </trkpt>
      <trkpt lat="49.4645" lon="1.48711">
        <ele>153</ele>
        <time>2016-10-27T20:24:46Z</time>
      </trkpt>
      <trkpt lat="49.46383" lon="1.48556">
        <ele>150</ele>
        <time>2016-10-27T20:26:46Z</time>
      </trkpt>
      <trkpt lat="49.46327" lon="1.48462">
        <ele>146</ele>
        <time>2016-10-27T20:28:46Z</time>
      </trkpt>
      <trkpt lat="49.46176" lon="1.48578">
        <ele>163</ele>
        <time>2016-10-27T20:30:46Z</time>
      </trkpt>
      <trkpt lat="49.46084" lon="1.48741">
        <ele>169</ele>
        <time>2016-10-27T20:32:46Z</time>
      </trkpt>
      <trkpt lat="49.46084" lon="1.48539">
        <ele>164</ele>
        <time>2016-10-27T20:34:46Z</time>
      </trkpt>
      <trkpt lat="49.46126" lon="1.48316">
        <ele>165</ele>
        <time>2016-10-27T20:36:46Z</time>
      </trkpt>
      <trkpt lat="49.45663" lon="1.47578">
        <ele>167</ele>
        <time>2016-10-27T20:38:46Z</time>
      </trkpt>
      <trkpt lat="49.45166" lon="1.47621">
        <ele>162</ele>
        <time>2016-10-27T20:40:46Z</time>
      </trkpt>
      <trkpt lat="49.44631" lon="1.49612">
        <ele>173</ele>
        <time>2016-10-27T20:42:46Z</time>
      </trkpt>
      <trkpt lat="49.4465" lon="1.49775">
        <ele>179</ele>
        <time>2016-10-27T20:44:46Z</time>
      </trkpt>
      <trkpt lat="49.44634" lon="1.49835">
        <ele>179</ele>
        <time>2016-10-27T20:46:46Z</time>
      </trkpt>
      <trkpt lat="49.44642" lon="1.50153">
        <ele>176</ele>
        <time>2016-10-27T20:48:46Z</time>
      </trkpt>
      <trkpt lat="49.44586" lon="1.50277">
        <ele>168</ele>
        <time>2016-10-27T20:50:46Z</time>
      </trkpt>
      <trkpt lat="49.44575" lon="1.5044">
        <ele>158</ele>
        <time>2016-10-27T20:52:46Z</time>
      </trkpt>
      <trkpt lat="49.44553" lon="1.50509">
        <ele>164</ele>
        <time>2016-10-27T20:54:46Z</time>
      </trkpt>
      <trkpt lat="49.44463" lon="1.50466">
        <ele>167</ele>
        <time>2016-10-27T20:56:46Z</time>
      </trkpt>
      <trkpt lat="49.445" lon="1.50577">
        <ele>178</ele>
        <time>2016-10-27T20:58:46Z</time>
      </trkpt>
      <trkpt lat="49.44483" lon="1.50732">
        <ele>182</ele>
        <time>2016-10-27T21:00:46Z</time>
      </trkpt>
      <trkpt lat="49.44433" lon="1.50921">
        <ele>178</ele>
        <time>2016-10-27T21:02:46Z</time>
      </trkpt>
      <trkpt lat="49.4419" lon="1.51388">
        <ele>169</ele>
        <time>2016-10-27T21:04:46Z</time>
      </trkpt>
      <trkpt lat="49.44193" lon="1.51513">
        <ele>165</ele>
        <time>2016-10-27T21:06:46Z</time>
      </trkpt>
      <trkpt lat="49.44109" lon="1.5159">
        <ele>164</ele>
        <time>2016-10-27T21:08:46Z</time>
      </trkpt>
      <trkpt lat="49.4393" lon="1.5165">
        <ele>149</ele>
        <time>2016-10-27T21:10:46Z</time>
      </trkpt>
      <trkpt lat="49.44125" lon="1.51895">
        <ele>149</ele>
        <time>2016-10-27T21:12:46Z</time>
      </trkpt>
      <trkpt lat="49.4373" lon="1.52183">
        <ele>172</ele>
        <time>2016-10-27T21:14:46Z</time>
      </trkpt>
      <trkpt lat="49.43783" lon="1.52393">
        <ele>168</ele>
        <time>2016-10-27T21:16:46Z</time>
      </trkpt>
      <trkpt lat="49.43802" lon="1.52719">
        <ele>165</ele>
        <time>2016-10-27T21:18:46Z</time>
      </trkpt>
      <trkpt lat="49.43514" lon="1.52959">
        <ele>171</ele>
        <time>2016-10-27T21:20:46Z</time>
      </trkpt>
      <trkpt lat="49.43433" lon="1.52985">
        <ele>170</ele>
        <time>2016-10-27T21:22:46Z</time>
      </trkpt>
      <trkpt lat="49.43194" lon="1.53161">
        <ele>166</ele>
        <time>2016-10-27T21:24:46Z</time>
      </trkpt>
      <trkpt lat="49.42945" lon="1.53092">
        <ele>156</ele>
        <time>2016-10-27T21:26:46Z</time>
      </trkpt>
      <trkpt lat="49.428" lon="1.5307">
        <ele>137</ele>
        <time>2016-10-27T21:28:46Z</time>
      </trkpt>
      <trkpt lat="49.42769" lon="1.53153">
        <ele>133</ele>
        <time>2016-10-27T21:30:46Z</time>
      </trkpt>
      <trkpt lat="49.42803" lon="1.53225">
        <ele>139</ele>
        <time>2016-10-27T21:32:46Z</time>
      </trkpt>
      <trkpt lat="49.42815" lon="1.5332">
        <ele>139</ele>
        <time>2016-10-27T21:34:46Z</time>
      </trkpt>
      <trkpt lat="49.42873" lon="1.5344">
        <ele>140</ele>
        <time>2016-10-27T21:36:46Z</time>
      </trkpt>
      <trkpt lat="49.42993" lon="1.53702">
        <ele>136</ele>
        <time>2016-10-27T21:38:46Z</time>
      </trkpt>
      <trkpt lat="49.43157" lon="1.53804">
        <ele>138</ele>
        <time>2016-10-27T21:40:46Z</time>
      </trkpt>
      <trkpt lat="49.4323" lon="1.53839">
        <ele>134</ele>
        <time>2016-10-27T21:42:46Z</time>
      </trkpt>
      <trkpt lat="49.43239" lon="1.53699">
        <ele>138</ele>
        <time>2016-10-27T21:44:46Z</time>
      </trkpt>
      <trkpt lat="49.43307" lon="1.53591">
        <ele>149</ele>
        <time>2016-10-27T21:46:46Z</time>
      </trkpt>
      <trkpt lat="49.44094" lon="1.53066">
        <ele>170</ele>
        <time>2016-10-27T21:48:46Z</time>
      </trkpt>
      <trkpt lat="49.44156" lon="1.53341">
        <ele>176</ele>
        <time>2016-10-27T21:50:46Z</time>
      </trkpt>
      <trkpt lat="49.44187" lon="1.53401">
        <ele>177</ele>
        <time>2016-10-27T21:52:46Z</time>
      </trkpt>
      <trkpt lat="49.44315" lon="1.53393">
        <ele>178</ele>
        <time>2016-10-27T21:54:46Z</time>
      </trkpt>
      <trkpt lat="49.4448" lon="1.5335">
        <ele>173</ele>
        <time>2016-10-27T21:56:46Z</time>
      </trkpt>
      <trkpt lat="49.44767" lon="1.53127">
        <ele>168</ele>
        <time>2016-10-27T21:58:46Z</time>
      </trkpt>
      <trkpt lat="49.44874" lon="1.53152">
        <ele>172</ele>
        <time>2016-10-27T22:00:46Z</time>
      </trkpt>
      <trkpt lat="49.44938" lon="1.53122">
        <ele>178</ele>
        <time>2016-10-27T22:02:46Z</time>
      </trkpt>
      <trkpt lat="49.44896" lon="1.52891">
        <ele>177</ele>
        <time>2016-10-27T22:04:46Z</time>
      </trkpt>
      <trkpt lat="49.44866" lon="1.52796">
        <ele>175</ele>
        <time>2016-10-27T22:06:46Z</time>
      </trkpt>
      <trkpt lat="49.4485" lon="1.52723">
        <ele>173</ele>
        <time>2016-10-27T22:08:46Z</time>
      </trkpt>
      <trkpt lat="49.44834" lon="1.52672">
        <ele>171</ele>
        <time>2016-10-27T22:10:46Z</time>
      </trkpt>
      <trkpt lat="49.44836" lon="1.52597">
        <ele>162</ele>
        <time>2016-10-27T22:12:46Z</time>
      </trkpt>
      <trkpt lat="49.44797" lon="1.52569">
        <ele>158</ele>
        <time>2016-10-27T22:14:46Z</time>
      </trkpt>
      <trkpt lat="49.44716" lon="1.52545">
        <ele>156</ele>
        <time>2016-10-27T22:16:46Z</time>
      </trkpt>
      <trkpt lat="49.44741" lon="1.52524">
        <ele>154</ele>
        <time>2016-10-27T22:18:46Z</time>
      </trkpt>
      <trkpt lat="49.44907" lon="1.52504">
        <ele>152</ele>
        <time>2016-10-27T22:20:46Z</time>
      </trkpt>
      <trkpt lat="49.44953" lon="1.52534">
        <ele>155</ele>
        <time>2016-10-27T22:22:46Z</time>
      </trkpt>
      <trkpt lat="49.45053" lon="1.52661">
        <ele>161</ele>
        <time>2016-10-27T22:24:46Z</time>
      </trkpt>
      <trkpt lat="49.45214" lon="1.52933">
        <ele>173</ele>
        <time>2016-10-27T22:26:46Z</time>
      </trkpt>
      <trkpt lat="49.45309" lon="1.52852">
        <ele>166</ele>
        <time>2016-10-27T22:28:46Z</time>
      </trkpt>
      <trkpt lat="49.46001" lon="1.51994">
        <ele>173</ele>
        <time>2016-10-27T22:30:46Z</time>
      </trkpt>
      <trkpt lat="49.46042" lon="1.51981">
        <ele>175</ele>
        <time>2016-10-27T22:32:46Z</time>
      </trkpt>
      <trkpt lat="49.46054" lon="1.51921">
        <ele>175</ele>
        <time>2016-10-27T22:34:46Z</time>
      </trkpt>
      <trkpt lat="49.46226" lon="1.51697">
        <ele>177</ele>
        <time>2016-10-27T22:36:46Z</time>
      </trkpt>
      <trkpt lat="49.46419" lon="1.51474">
        <ele>178</ele>
        <time>2016-10-27T22:38:46Z</time>
      </trkpt>
    </trkseg>
  </trk>
</gpx>